Location: Boiro
(42.6475°N, 8.8834°W)
Time: 00:01:57
(UTC+01:00)

Transit 2A - Pass Details

Date: 05 December 2021
Orbit: 591 x 967 km, 66.7° (Epoch: 18 January)

Event Time Altitude Azimuth Distance (km) Brightness Sun altitude
Rises 02:26:03 0° 239° (WSW) 3,321 - -66.2°
Reaches altitude 10° 02:28:37 10° 248° (WSW) 2,452 - -65.9°
Maximum altitude 02:33:47 34° 313° (NW) 1,426 - -65.3°
Drops below altitude 10° 02:39:24 10° 17° (NNE) 2,655 - -64.6°
Sets 02:42:17 0° 27° (NNE) 3,634 - -64.3°
